Sabadell, Spain

10:37 AM CET en Enero 24, 2019 (GMT +0100)
Sabadell

Tiempo Historia de LELL - Enero, 2019

Change the Weather History Date:

Viernes, Enero 11, 2019

  Actual Average (LEBL) Record (LEBL)
Temperature  
Temperatura media 36 ° F -  
Temperatura máxima 48 ° F 54 ° F 66 ° F (2016)
Temperatura mínima 24 ° F 40 ° F 32 ° F (2003)
Degree Days  
Grados día de calefacción 29    
Moisture  
Punto de rocío 24 ° F    
Average Humidity 62    
Maximum Humidity 80    
Minimum Humidity 37    
Precipitación  
Precipitación 0.00 pul - - ()
Presión al nivel del mar  
Presión al nivel del mar 30.20 pul    
Viento  
Velocidad del viento 4 mph ()    
Velocidad máxima del viento 10 mph    
Max Gust Speed -    
Visibilidad 6.2 Millas    
Eventos      
Averages and records for this station are not official NWS values.
T = Trace of Precipitation, MM = Missing Value Source: Averaged Metar Reports

Daily Weather History Graph

Daily Weather History Graph

Search for Another Location

Airport or City:

Astronomía

Jan. 11, 2019 Salida Puesta
Hora real 8:17 AM CET 5:41 PM CET
Crepúsculo civil 7:46 AM CET 6:12 PM CET
Crepúsculo náutico 7:12 AM CET 6:47 PM CET
Crepúsculo astronómico 6:38 AM CET 7:20 PM CET
Luna 11:24 AM CET (1/11) 10:52 PM CET (1/11)
Horas de luz 10h 26m
Horas de luz
9h 24m
Creciente, 24% of the Moon is Illuminated
Ene 11
Creciente
Ene 14
Cuarto creciente
Ene 21
Luna llena
Ene 27
Cuarto menguante
Feb 4
Nueva

Hourly Weather History & Observations

Hora (CET) Temp. Vientos helados Punto de rocío Humedad Presión Visibilidad Wind Dir Velocidad del viento Velocidad de ráfagas Precip Eventos Condiciones
12:00 AM 32.0 ° F - 24.8 ° F 75% 30.12 pul 6.2 mi Norte 1.2 mph - N/A   Desconocido
12:30 AM 30.2 ° F 26.7 ° F 23.0 ° F 75% 30.12 pul 6.2 mi Oeste 3.5 mph - N/A   Desconocido
1:00 AM 30.2 ° F 25.4 ° F 23.0 ° F 75% 30.12 pul 6.2 mi ONO 4.6 mph - N/A   Desconocido
2:00 AM 30.2 ° F 24.3 ° F 23.0 ° F 75% 30.12 pul 6.2 mi ONO 5.8 mph - N/A   Desconocido
2:30 AM 32.0 ° F 27.5 ° F 23.0 ° F 69% 30.12 pul 6.2 mi NO 4.6 mph - N/A   Desconocido
3:00 AM 28.4 ° F 24.6 ° F 23.0 ° F 80% 30.15 pul 6.2 mi ONO 3.5 mph - N/A   Desconocido
3:30 AM 28.4 ° F - 23.0 ° F 80% 30.15 pul 6.2 mi Sin viento Sin viento - N/A   Desconocido
4:00 AM 28.4 ° F - 23.0 ° F 80% 30.15 pul 6.2 mi Variable 2.3 mph - N/A   Desconocido
4:30 AM 30.2 ° F 25.4 ° F 23.0 ° F 75% 30.15 pul 6.2 mi ONO 4.6 mph - N/A   Desconocido
5:00 AM 26.6 ° F - 21.2 ° F 80% 30.15 pul 6.2 mi Variable 2.3 mph - N/A   Desconocido
5:30 AM 26.6 ° F - 21.2 ° F 80% 30.15 pul 6.2 mi Sin viento Sin viento - N/A   Desconocido
6:00 AM 26.6 ° F - 21.2 ° F 80% 30.15 pul 6.2 mi Variable 2.3 mph - N/A   Desconocido
6:30 AM 26.6 ° F 22.6 ° F 21.2 ° F 80% 30.15 pul 6.2 mi ONO 3.5 mph - N/A   Desconocido
7:00 AM 26.6 ° F 22.6 ° F 21.2 ° F 80% 30.18 pul 6.2 mi ONO 3.5 mph - N/A   Desconocido
7:30 AM 24.8 ° F - 19.4 ° F 80% 30.18 pul 6.2 mi Variable 2.3 mph - N/A   Desconocido
8:00 AM 26.6 ° F - 21.2 ° F 80% 30.18 pul - Variable 2.3 mph - N/A   Despejado
8:30 AM 26.6 ° F 22.6 ° F 21.2 ° F 80% 30.18 pul - NO 3.5 mph - N/A   Despejado
9:00 AM 28.4 ° F 23.3 ° F 21.2 ° F 74% 30.21 pul - ONO 4.6 mph - N/A   Despejado
9:30 AM 30.2 ° F 26.7 ° F 23.0 ° F 75% 30.21 pul - Oeste 3.5 mph - N/A   Despejado
10:00 AM 37.4 ° F - 26.6 ° F 65% 30.21 pul - Sin viento Sin viento - N/A   Despejado
10:30 AM 37.4 ° F 34.9 ° F 23.0 ° F 56% 30.24 pul - OSO 3.5 mph - N/A   Despejado
11:00 AM 41.0 ° F - 24.8 ° F 53% 30.21 pul - Variable 1.2 mph - N/A   Despejado
11:30 AM 42.8 ° F - 23.0 ° F 46% 30.24 pul - Variable 2.3 mph - N/A   Despejado
12:00 PM 44.6 ° F - 23.0 ° F 43% 30.21 pul - NNE 1.2 mph - N/A   Despejado
12:30 PM 44.6 ° F 40.7 ° F 23.0 ° F 43% 30.21 pul - OSO 6.9 mph - N/A   Despejado
1:00 PM 46.4 ° F 42.9 ° F 24.8 ° F 43% 30.21 pul - OSO 6.9 mph - N/A   Despejado
1:30 PM 48.2 ° F - 23.0 ° F 37% 30.21 pul - OSO 9.2 mph - N/A   Despejado
2:00 PM 48.2 ° F - 24.8 ° F 40% 30.21 pul - OSO 10.4 mph - N/A   Despejado
2:30 PM 48.2 ° F - 24.8 ° F 40% 30.18 pul - Oeste 10.4 mph - N/A   Despejado
3:00 PM 48.2 ° F - 24.8 ° F 40% 30.18 pul - Oeste 10.4 mph - N/A   Despejado
3:30 PM 48.2 ° F - 24.8 ° F 40% 30.18 pul - OSO 9.2 mph - N/A   Despejado
4:00 PM 48.2 ° F - 24.8 ° F 40% 30.21 pul - Oeste 8.1 mph - N/A   Despejado
4:30 PM 48.2 ° F - 26.6 ° F 43% 30.21 pul - Oeste 6.9 mph - N/A   Despejado
5:00 PM 48.2 ° F - 24.8 ° F 40% 30.21 pul - Oeste 6.9 mph - N/A   Despejado
5:30 PM 44.6 ° F 40.7 ° F 24.8 ° F 46% 30.21 pul - OSO 6.9 mph - N/A   Despejado
6:00 PM 42.8 ° F 38.6 ° F 24.8 ° F 49% 30.24 pul 6.2 mi OSO 6.9 mph - N/A   Desconocido
6:30 PM 41.0 ° F 36.4 ° F 24.8 ° F 53% 30.24 pul 6.2 mi Oeste 6.9 mph - N/A   Desconocido
7:00 PM 39.2 ° F 34.2 ° F 24.8 ° F 56% 30.24 pul 6.2 mi Oeste 6.9 mph - N/A   Desconocido
7:30 PM 41.0 ° F - 24.8 ° F 53% 30.27 pul 6.2 mi Variable 1.2 mph - N/A   Desconocido
8:00 PM 37.4 ° F - 24.8 ° F 60% 30.27 pul 6.2 mi Sin viento Sin viento - N/A   Desconocido
8:30 PM 37.4 ° F 32.8 ° F 24.8 ° F 60% 30.27 pul 6.2 mi ONO 5.8 mph - N/A   Desconocido
9:00 PM 35.6 ° F 32.8 ° F 24.8 ° F 65% 30.27 pul 6.2 mi Oeste 3.5 mph - N/A   Desconocido
9:30 PM 37.4 ° F 33.8 ° F 24.8 ° F 60% 30.27 pul 6.2 mi NO 4.6 mph - N/A   Desconocido
10:00 PM 33.8 ° F - 24.8 ° F 70% 30.30 pul 6.2 mi Sin viento Sin viento - N/A   Desconocido
10:30 PM 33.8 ° F - 24.8 ° F 70% 30.30 pul 6.2 mi Variable 2.3 mph - N/A   Desconocido
11:00 PM 32.0 ° F - 24.8 ° F 75% 30.30 pul 6.2 mi Sin viento Sin viento - N/A   Desconocido
11:30 PM 33.8 ° F - 24.8 ° F 70% 30.30 pul 6.2 mi Variable 2.3 mph - N/A   Desconocido